Flag for Australia Weather past 2 weeks in Adelaide, South Australia, Australia

Now
46 °F

Clear.


Feels Like: 44 °F
Forecast: 53 / 74 °F
Wind: 5 mph from Northeast

Location: Adelaide Airport


UV Index: 0 (Low)

Visibility: 10 mi


Pressure: 30.04 "Hg

Humidity: 87%

Dew point: 43 °F

Location of AdelaideLocation

Historic Weather in Adelaide

°F

Adelaide temperature yesterday

Maximum temperature yesterday: 68 °F (at 12:00 PM)
Minimum temperature yesterday: 50 °F (at 11:30 PM)
Average temperature yesterday: 62 °F

Past Weeks' High & Low Weather Summary

 TemperatureHumidityPressure
High82 °F (Apr 21, 4:00 PM)94% (Apr 10, 3:30 AM)30.24 "Hg (Apr 10, 3:30 AM)
Low45 °F (Apr 25, 4:00 AM)26% (Apr 21, 4:00 PM)29.83 "Hg (Apr 10, 3:30 AM)
Average62 °F64%30.07 "Hg
* Reported Apr 10 3:30 AM — Apr 25 4:00 AM, Adelaide, Weather by CustomWeather, © 2014

Note: Actual official high and low records may vary slightly from our data, if they occured in-between our weather recording intervals... More about our weather records

Advertising

Historic Weather Conditions — Data for Previous 24 hours

 ConditionsComfort  
Time TempWeatherWind HumidityBarometerVisibility
4:00 AM
Apr 25
45 °FClear.5 mph87%30.04 "Hg10 mi
3:30 AM46 °FClear.No wind87%30.04 "Hg10 mi
3:00 AM46 °FClear.3 mph87%30.04 "Hg10 mi
2:30 AM46 °FClear.1 mph87%30.07 "Hg10 mi
2:00 AM48 °FClear.No wind82%30.07 "Hg10 mi
1:30 AM50 °FClear.2 mph76%30.07 "Hg10 mi
1:00 AM48 °FClear.No wind76%30.07 "Hg10 mi
12:30 AM48 °FClear.No wind82%30.07 "Hg10 mi
12:00 AM50 °FClear.3 mph82%30.09 "Hg10 mi
11:30 PM
Apr 24
50 °FClear.No wind82%30.09 "Hg10 mi
11:00 PM52 °FClear.No wind77%30.09 "Hg10 mi
10:30 PM52 °FClear.5 mph72%30.09 "Hg10 mi
10:00 PM54 °FClear.3 mph67%30.09 "Hg10 mi
9:30 PM54 °FClear.6 mph67%30.09 "Hg10 mi
9:00 PM55 °FClear.6 mph59%30.09 "Hg10 mi
8:30 PM55 °FClear.7 mph59%30.09 "Hg10 mi
8:00 PM55 °FClear.8 mph59%30.09 "Hg10 mi
7:30 PM55 °FClear.8 mph59%30.07 "Hg10 mi
7:00 PM59 °FClear.8 mph51%30.07 "Hg10 mi
6:30 PM59 °FClear.9 mph55%30.07 "Hg10 mi
6:00 PM61 °FClear.9 mph52%30.07 "Hg10 mi
5:30 PM64 °FPassing clouds.12 mph49%30.04 "HgN/A
4:30 PM66 °FPassing clouds.14 mph52%30.04 "HgN/A
4:00 PM68 °FPassing clouds.16 mph49%30.04 "HgN/A
3:30 PM68 °FPassing clouds.15 mph49%30.04 "HgN/A
3:00 PM68 °FPassing clouds.17 mph46%30.04 "HgN/A
2:30 PM68 °FPassing clouds.17 mph46%30.04 "HgN/A
2:00 PM68 °FPassing clouds.17 mph49%30.04 "HgN/A
1:30 PM68 °FPassing clouds.17 mph49%30.04 "HgN/A
1:00 PM68 °FPassing clouds.13 mph49%30.04 "HgN/A
12:30 PM68 °FPassing clouds.9 mph53%30.07 "HgN/A
12:00 PM68 °FPartly sunny.7 mph53%30.07 "HgN/A
11:30 AM66 °FPartly sunny.8 mph56%30.07 "HgN/A
11:00 AM66 °FPartly sunny.10 mph56%30.07 "HgN/A
10:30 AM66 °FPartly sunny.12 mph60%30.07 "HgN/A
10:00 AM66 °FPartly sunny.13 mph64%30.07 "HgN/A
9:30 AM64 °FScattered clouds.10 mph68%30.07 "HgN/A
9:00 AM64 °FScattered clouds.14 mph68%30.07 "HgN/A
8:30 AM64 °FScattered clouds.10 mph68%30.07 "HgN/A
8:00 AM63 °FPassing clouds.10 mph73%30.04 "HgN/A
7:30 AM63 °FScattered clouds.9 mph77%30.04 "HgN/A
7:00 AM63 °FScattered clouds.14 mph77%30.01 "HgN/A
6:30 AM64 °FPartly sunny.17 mph78%30.01 "HgN/A
6:00 AM63 °FPassing clouds.13 mph83%29.98 "HgN/A
5:30 AM63 °FPassing clouds.15 mph83%29.98 "HgN/A
5:00 AM63 °FPassing clouds.12 mph83%29.98 "HgN/A
Weather by CustomWeather, © 2014

See weather overview